STARLINK-35694, 66389

Orbit data source: Space-Track

STARLINK-35694, 66389 is a payload satellite owned by SpaceX/Seattle (US) in LEO that was launched on Sat, 08 Nov 2025 UTC via an FALCON 9 launch vehicle from the Air Force Eastern Test Range (AFETR). Payload-class satellites include a variety of spacecraft equipped with specific instruments for various scientific and technological missions. These include communications satellites like Starlink; space stations such as the ISS; scientific satellites like the Hubble; Earth observation satellites from companies like Planet Labs, Umbra, and HawkEye 360; GPS; miniature CubeSats for education and research; and military/defense satellites.

Loading next visibility...
Identifier
66389, 2025-257K
Orbit
LEO
Country
Flag of USUS
Related business
Manufacturer
SpaceX/Seattle
Mission
Operational Commercial Communications
Bus & Motor
STARLINK V2MO, Unknown motor
Mass
575 kg wet, ~530 kg dry
Launch date (UTC)
2025-11-08 (7 months ago)
Launch vehicle
FALCON 9
Launch site
Air Force Eastern Test Range (AFETR)
Object type
Payload
Rocket body
Debris
Shape & HBR
Box + 2 Pan, 17.7 m
Radar Cross Section
36.964 m², Large (>1 m²)

Expand to show TLE details & history
Last TLE update: 15 hours ago

TLE from 15 hours ago
0 STARLINK-35694
1 66389U 25257K   26171.21368250  .00025704  00000-0  87768-3 0  9994
2 66389  53.1593 100.5774 0001421  95.9847 264.1316 15.30173754 35438
Epoch: 2026-06-20T05:07Z
TLE epoch observation values (Epoch: 2026-06-20T05:07:42.167Z)
Latitude
0.00003°
Longitude
115.22019°
Altitude
476.293 km
Speed
7.629 km/s
True Right ascension
06h 42m 18s
True Declination
0° 00' 00"
Sunlit
Object was in daylight at epoch
Visualization orbit readout
Latitude
Unknown
Longitude
Unknown
Altitude
Unknown
Speed
Unknown
Apparent Right ascension
Unknown
Apparent Declination
Unknown
Sunlit
N/A
Visualization observer readout
Local Sidereal Time
07:18:07
Azimuth
Unknown
Elevation
Unknown
Doppler factor
Unknown
Orbital elements
Apogee altitude
476.524 km
Perigee altitude
474.576 km
Semi-major axis
6,853.687 km
Eccentricity
0.00014
Inclination
53.1593°
RAAN
100.5774°
Arg. of periapsis
95.9847°
True anomaly
264.1154°
Mean anomaly
264.1316°
Eccentric anomaly
264.1235°
Mean motion
3.82522 °/min
Orbital period
94.11 mins
BSTAR
0.00087768
Loading maneuver chart data...
Computing Atmospheric mass density...
Loading historical data...
Loading historical data...
Loading historical data...
Loading historical data...
Loading historical data...
Loading historical data...
Loading historical data...

Documentation

Showing up to 5 results
|